Regional Weather Roundup
Issued by NWS

Home | Current Version | Previous Version | Graphics & Text | Print | Product List | Glossary On
Versions: 1 2 3 4 5 6 7 8 9 10 11 12 13 14 15 16 17 18 19 20 21 22 23 24 25 26 27 28 29 30 31 32 33 34 35 36 37 38 39 40 41 42 43 44 45 46 47 48 49 50
000
ASUS43 KTOP 211959
RWRKS

WEATHER ROUNDUP FOR KANSAS
NATIONAL WEATHER SERVICE GOODLAND KS
300 PM CDT TUE OCT 21 2014

NOTE:  "FAIR" INDICATES FEW OR NO CLOUDS BELOW 12,000 FEET WITH NO
SIGNIFICANT WEATHER AND/OR OBSTRUCTIONS TO VISIBILITY.

KSZ001>006-013>018-027>032-041>047-212100-
NORTHWEST KANSAS

CITY           SKY/WX    TMP DP  RH WIND       PRES   REMARKS
GOODLAND       SUNNY     78  51  38 S20G28    29.96F
HAYS           SUNNY     77  59  53 SE13G18   30.00F
HILL CITY      SUNNY     79  57  46 SE16      29.98F
RUSSELL        SUNNY     78  60  53 S13G21    29.99F
$$

KSZ061>065-074>080-084>089-212100-
SOUTHWEST KANSAS

CITY           SKY/WX    TMP DP  RH WIND       PRES   REMARKS
DODGE CITY     MOSUNNY   78  52  40 SW15      30.02F
ELKHART          N/A     77  48  35 S12         N/A
GARDEN CITY    MOSUNNY   79  51  37 SW17G28   30.00F
GREAT BEND     MOSUNNY   79  61  53 S10       30.00F
LIBERAL        PTSUNNY   79  52  38 S17       30.03F
$$

KSZ066>073-081>083-090>101-212100-
SOUTHEAST KANSAS

CITY           SKY/WX    TMP DP  RH WIND       PRES   REMARKS
CHANUTE        SUNNY     75  55  49 VRB6      30.07F
COFFEYVILLE    SUNNY     78  55  44 E3        30.05F
HUTCHINSON     SUNNY     81  57  43 S16       30.02F
NEWTON         SUNNY     79  54  41 S9        30.06F
PARSONS        SUNNY     77  55  46 CALM      30.07F
WICHITA INTL   MOSUNNY   80  58  46 SE10      30.03F
WICHITA JABRA  SUNNY     79  56  45 S13       30.04F
WINFIELD       SUNNY     80  61  52 S9        30.04F
$$

KSZ007>012-019>026-033>040-048>060-102>105-212100-
NORTHEAST KANSAS

CITY           SKY/WX    TMP DP  RH WIND       PRES   REMARKS
CONCORDIA      SUNNY     76  52  43 S13       30.03F
EMPORIA        SUNNY     75  51  43 E8        30.06F
LAWRENCE       SUNNY     73  44  35 VRB3      30.08F
MANHATTAN      SUNNY     78  46  32 S10       30.04F
OLATHE IND     SUNNY     73  45  36 VRB5      30.09F
OLATHE EXE     SUNNY     73  44  35 CALM      30.08F
SALINA         SUNNY     79  53  40 SE15      30.02F
TOPEKA BILLARD SUNNY     77  43  29 SE6       30.07F
TOPEKA FORBES  SUNNY     76  42  29 MISG      30.07F
$$



USA.gov is the U.S. government's official web portal to all federal, state and local government web resources and services.